Wind_Speed
19 18 18 17 18 18 18 19 19 18 18 17 16 17 17 16 14 13 14 14 13 13 14 15 16 16 18 20 20 20 20 19 18 17 16 16 15 15 16 16 16 15 14 15 15 15 14 15 14 15 14 14 16 16 15 14 14 16 16 17 18 15 10 8 7 9 9 10 13 13 14 16 15 15 15 13 13 16 14 11 12 13 12 12 15
19 19 18 18 18 18 17 18 19 19 18 17 17 17 17 17 15 15 15 15 14 14 15 16 17 17 18 20 21 20 20 18 18 17 16 15 15 15 15 16 16 16 15 15 15 14 14 15 14 14 14 14 16 16 15 14 13 14 15 17 18 15 14 15 13 11 10 9 12 14 14 16 15 15 16 14 13 15 15 13 12 13 13 12 13
20 20 20 19 19 18 17 17 19 20 19 17 17 17 18 17 16 16 16 16 16 17 16 16 18 18 18 20 21 20 19 18 17 17 16 15 15 15 15 16 16 16 16 15 15 14 14 15 15 14 14 14 15 15 15 15 16 17 19 19 18 15 14 15 12 10 11 11 13 14 15 15 15 14 16 15 14 15 15 14 13 13 13 13 12
21 21 21 21 19 18 18 18 19 20 20 19 18 18 18 17 15 17 17 16 17 18 17 16 17 17 17 19 19 18 17 17 17 16 15 14 15 15 15 15 15 15 15 15 14 14 14 15 15 15 14 14 15 16 16 17 18 21 22 19 16 14 12 11 10 9 10 11 13 15 15 15 15 14 15 15 14 14 15 14 14 14 13 14 13
22 22 22 22 20 20 20 18 19 21 21 21 20 20 18 16 15 16 16 15 16 16 15 16 17 18 17 18 18 17 17 17 16 16 15 15 15 15 14 14 14 14 14 14 14 14 14 14 15 15 15 14 15 16 17 17 18 19 19 18 16 15 14 12 11 12 11 10 13 14 13 15 15 14 14 15 14 14 15 14 14 14 14 14 14
21 21 22 22 21 21 21 20 20 21 21 22 21 20 18 16 15 15 13 14 15 14 14 16 18 19 19 18 19 19 18 17 16 15 15 15 15 15 14 13 14 14 14 14 14 14 14 14 15 15 16 15 15 15 16 17 18 17 17 18 15 14 16 14 13 14 13 10 12 13 12 14 15 14 14 16 15 15 15 14 14 14 14 14 13
20 20 21 22 22 22 21 21 21 21 22 22 21 20 18 15 14 13 12 11 11 12 14 15 17 18 18 18 18 18 16 15 15 15 14 14 14 14 14 13 13 14 14 14 14 14 14 15 15 15 16 15 15 15 16 17 18 18 18 17 14 14 19 15 12 14 14 11 12 13 13 13 14 14 14 16 15 14 15 15 14 14 14 14 14
19 20 21 22 23 23 22 21 21 21 22 21 21 20 19 16 13 11 10 8 7 8 10 11 13 14 13 12 13 14 15 14 14 14 14 13 13 13 13 13 13 13 14 14 14 14 14 15 15 15 16 16 16 16 16 17 18 19 19 17 14 14 18 16 11 11 13 14 14 13 14 14 14 14 14 15 15 15 15 14 14 15 15 15 15
19 20 21 22 22 22 22 21 21 21 22 22 22 23 21 17 12 9 8 7 7 7 8 8 10 11 9 9 12 17 18 16 14 14 14 13 13 13 13 13 13 13 13 13 14 15 14 14 14 15 15 16 17 17 17 18 18 17 17 15 13 12 14 19 18 12 9 11 14 13 14 14 15 15 15 16 17 16 15 14 13 13 14 14 14
19 20 21 22 22 22 22 22 22 22 22 23 23 24 23 20 15 12 9 7 8 9 7 8 11 11 9 9 12 16 17 14 13 15 15 13 13 13 13 13 13 13 13 13 14 15 14 14 14 15 17 17 18 19 19 19 19 16 14 14 15 13 11 18 19 15 9 9 11 11 11 12 15 16 16 16 17 16 15 15 15 14 13 12 12
19 20 21 21 22 23 23 22 23 22 22 23 23 23 24 22 19 17 14 10 8 8 7 7 9 11 10 10 12 13 12 11 13 15 16 15 13 12 12 13 13 13 14 14 14 15 14 13 13 15 17 17 17 19 21 20 19 17 15 15 14 12 11 14 18 19 19 16 13 13 13 13 15 16 16 16 16 17 17 16 16 16 14 12 11
20 20 21 21 22 23 23 23 23 23 23 23 23 23 23 22 21 21 20 17 12 9 7 6 6 8 10 11 11 11 6 5 8 12 14 15 15 13 12 13 13 13 14 14 14 14 13 13 13 13 14 15 14 16 19 20 18 17 17 16 14 12 13 16 18 18 20 18 16 17 17 17 17 16 17 17 15 16 17 16 16 16 15 15 14
20 20 21 22 23 23 24 24 24 24 24 23 23 22 22 22 21 20 19 18 16 13 11 9 6 6 8 9 9 10 8 8 9 11 14 16 16 15 13 12 12 13 13 13 13 13 13 13 13 12 12 14 14 13 14 16 17 17 16 16 16 15 15 16 17 18 18 17 17 17 15 14 14 14 14 15 14 14 16 15 15 15 15 15 13
20 20 21 22 23 23 23 24 24 24 24 24 23 23 23 22 20 19 17 17 17 16 15 13 10 8 6 6 7 8 7 11 12 12 14 16 17 17 15 12 12 13 13 13 13 12 13 13 13 13 12 13 15 14 12 13 14 14 13 11 12 14 14 15 17 19 20 18 14 12 9 5 6 8 8 10 11 10 12 13 12 12 11 9 7
20 21 21 22 23 23 23 23 24 24 24 24 24 23 23 22 20 19 18 18 17 16 15 14 13 12 10 7 6 7 6 9 11 12 14 16 17 18 17 14 13 13 13 13 13 12 13 13 13 13 13 13 15 16 15 13 12 12 12 10 10 11 13 14 15 16 18 17 12 12 12 8 7 8 6 5 7 7 7 8 8 9 10 9 8
20 22 21 21 22 23 23 23 24 24 24 24 24 24 23 23 21 19 18 17 18 17 16 15 14 14 15 12 9 8 9 9 10 12 14 16 17 17 17 16 15 13 13 13 13 12 12 12 13 13 13 14 16 18 17 15 14 14 13 11 11 11 12 14 15 13 14 16 14 17 20 17 14 14 10 6 7 8 7 8 8 10 11 10 9
20 22 22 21 21 22 22 23 24 24 24 24 24 23 23 22 21 21 19 18 18 18 17 17 17 16 16 16 14 12 12 12 11 10 11 13 15 15 15 17 16 13 13 13 12 11 12 13 13 12 12 14 17 19 20 18 15 15 15 12 11 9 8 9 10 10 11 14 16 16 18 16 14 12 10 9 11 11 9 9 9 10 11 10 10
20 21 21 20 20 20 21 22 23 23 24 24 23 23 22 22 21 21 20 19 19 18 17 17 18 18 17 17 17 14 12 13 13 11 9 9 12 12 12 16 15 11 10 11 10 9 14 17 15 11 12 15 17 19 20 17 14 15 16 15 13 13 12 13 13 13 12 13 13 13 12 11 9 9 9 11 14 12 9 9 8 7 6 5 6
20 20 20 20 20 20 21 21 21 22 22 22 22 22 21 21 21 20 19 19 19 19 18 18 17 18 18 18 19 18 16 15 14 12 11 9 10 9 9 11 11 10 9 10 9 7 11 18 19 15 14 15 16 18 18 15 13 15 17 17 16 16 17 18 19 19 18 17 17 17 17 16 14 14 14 14 13 10 9 11 9 6 5 5 5
19 19 19 20 20 20 21 21 20 21 22 21 21 22 21 21 20 20 19 19 19 18 19 19 18 18 18 18 19 22 22 19 16 14 11 10 9 8 7 5 5 5 6 7 7 7 7 13 16 14 12 14 17 20 20 17 14 15 16 16 17 18 17 16 17 17 18 19 20 20 18 17 16 15 14 13 11 8 8 10 9 8 6 5 5
18 18 19 20 20 20 21 21 21 21 21 21 20 21 21 21 20 20 19 19 19 19 19 19 19 19 18 17 18 20 23 23 20 17 13 11 9 7 6 6 4 7 7 5 5 7 6 8 11 11 12 17 22 23 21 19 16 15 14 15 19 22 20 18 18 18 18 19 18 17 16 15 15 14 13 12 10 9 8 8 10 11 10 7 5
17 18 19 19 20 20 20 21 21 21 21 21 20 20 20 20 20 20 19 19 19 19 19 19 19 19 18 18 17 18 21 24 23 20 16 13 10 5 3 6 6 8 10 10 9 9 8 9 11 12 15 19 21 20 19 19 18 16 15 18 22 23 20 18 17 15 14 14 13 13 13 13 13 13 12 11 11 10 9 9 10 10 11 11 8
17 17 18 19 19 19 19 20 20 20 21 21 21 21 20 20 20 20 20 20 19 19 19 18 18 19 19 19 18 17 18 22 24 23 19 16 13 9 4 2 5 9 11 12 11 10 11 12 12 13 16 16 16 15 15 15 16 16 18 22 24 22 18 16 13 12 12 12 12 12 11 11 11 11 10 9 9 10 10 9 9 8 7 9 9
17 17 18 18 18 18 18 19 19 20 20 20 21 22 22 21 20 20 20 20 21 21 20 19 18 18 19 19 20 18 17 19 23 25 24 20 18 16 12 9 10 13 16 18 18 16 17 17 14 13 14 14 13 14 14 15 17 20 22 24 23 19 16 14 13 12 12 11 11 12 11 10 10 9 9 9 9 10 11 10 10 10 9 8 8
17 17 18 18 18 17 17 17 18 19 19 19 20 22 23 22 21 21 21 21 21 21 22 21 19 18 17 18 19 19 17 16 18 23 25 25 24 23 22 20 20 22 24 26 25 23 23 23 21 21 21 19 19 20 21 21 22 23 23 23 20 16 14 14 14 14 14 13 12 12 12 11 11 11 11 11 10 9 10 10 10 10 10 9 9
16 17 18 18 17 17 17 16 17 18 18 19 20 21 22 21 21 21 21 21 21 21 21 21 21 19 17 17 17 18 18 18 17 18 19 22 25 26 27 28 29 30 30 29 27 25 25 26 27 27 27 27 27 27 26 24 21 20 18 18 17 16 15 15 16 16 15 14 13 13 12 12 13 12 11 10 9 8 8 7 8 8 8 8 8
16 16 17 17 17 17 17 15 15 16 17 19 19 20 20 20 20 20 20 20 21 21 20 20 20 20 18 16 16 17 19 20 21 21 18 18 22 25 27 29 30 31 31 29 28 27 27 27 28 27 27 27 28 27 25 23 20 19 17 15 14 14 14 15 17 17 16 15 14 14 14 13 13 12 10 9 8 8 7 6 6 6 6 6 7
15 15 16 17 17 17 17 15 14 15 15 16 17 18 18 18 18 19 20 20 19 20 20 19 18 19 18 16 15 15 17 20 23 24 22 20 22 25 27 27 27 27 27 26 26 26 26 27 27 26 25 26 26 25 23 23 22 21 20 19 17 15 14 15 17 18 17 17 16 14 13 13 13 12 10 9 9 8 7 6 6 5 5 5 6
15 14 15 16 17 17 17 16 15 15 15 14 12 13 16 18 17 16 18 20 21 20 20 19 17 15 15 15 15 14 15 17 19 20 18 18 19 21 21 21 21 19 18 18 19 21 22 23 23 23 23 23 24 23 22 21 21 21 20 20 19 17 16 16 17 17 17 18 17 14 12 12 13 12 10 9 8 7 6 6 5 5 5 5 5
14 14 14 16 16 16 17 17 16 15 15 14 11 8 11 16 18 18 18 19 21 22 23 23 21 16 12 11 12 12 11 12 14 14 13 14 15 16 16 16 15 15 13 12 14 16 18 19 19 18 18 19 20 19 18 18 18 17 17 16 16 16 16 17 17 16 15 16 16 15 13 13 11 10 8 7 6 6 6 6 6 6 6 6 6
13 14 14 14 15 15 16 17 16 15 15 15 14 10 7 9 13 16 18 18 19 21 23 24 24 23 18 13 10 9 7 7 8 9 10 11 12 13 13 13 13 13 12 13 15 16 16 16 16 15 15 16 16 16 16 16 17 17 16 15 15 15 15 15 15 14 14 14 14 14 13 13 11 9 8 7 6 5 5 5 6 6 7 6 6
13 14 13 13 13 14 15 16 16 16 15 15 15 15 12 9 9 10 12 14 15 17 21 22 23 24 24 22 18 14 11 9 7 6 5 6 8 9 10 11 11 10 10 12 14 13 12 12 12 12 12 13 13 13 14 15 16 16 16 15 15 14 14 14 13 13 13 13 13 12 12 11 10 9 8 7 6 5 5 5 6 6 6 6 5
12 13 13 12 12 13 14 15 15 16 16 16 15 16 16 15 13 10 9 10 10 11 16 20 20 21 23 24 23 22 20 17 14 10 7 6 5 5 6 7 7 7 7 9 10 9 9 9 9 8 9 10 11 12 13 13 14 14 14 14 13 13 13 13 13 13 14 14 14 14 12 10 9 9 8 7 6 5 5 5 5 5 6 6 5
11 12 12 12 12 11 13 14 14 15 16 16 16 17 16 16 16 14 12 12 10 9 11 15 17 19 20 21 21 22 22 21 20 17 13 9 7 5 5 5 4 4 5 6 7 6 6 7 6 6 6 8 9 10 11 11 12 12 12 11 9 9 11 12 13 13 13 13 13 12 11 9 8 7 7 7 6 6 6 5 5 5 5 6 5
10 10 11 12 11 11 11 11 12 13 14 15 16 16 16 16 16 15 14 14 13 12 13 13 13 16 18 19 20 21 20 19 19 19 17 13 8 6 5 5 3 3 3 4 5 5 5 5 6 5 6 6 7 8 8 8 9 10 9 9 9 9 11 13 13 12 11 11 11 11 9 8 8 7 7 7 7 7 7 6 6 6 5 5 5
9 10 10 11 11 10 10 10 10 11 12 14 15 16 16 16 17 16 15 14 14 14 14 13 13 14 16 17 19 20 19 17 16 16 17 14 10 7 6 4 2 3 3 4 5 6 5 5 5 5 6 6 7 7 8 9 10 10 10 10 10 11 11 12 11 11 11 11 11 10 9 8 8 8 8 8 8 7 7 7 6 6 5 4 4
10 10 11 12 11 10 9 9 8 8 9 11 14 15 16 16 17 16 15 14 14 13 13 14 15 16 16 17 18 18 16 14 12 12 14 15 12 8 5 4 3 4 4 5 5 6 6 6 6 6 7 7 8 9 10 10 11 11 10 10 10 10 11 11 10 10 10 10 10 9 9 8 8 7 7 8 7 7 6 6 6 6 6 4 4
9 10 12 13 11 9 9 8 7 7 8 11 13 15 14 15 16 17 15 14 13 13 13 14 15 17 18 19 19 17 14 11 10 10 11 13 13 10 6 4 4 5 5 5 5 6 6 6 6 7 8 9 10 10 11 10 10 10 10 10 11 12 13 12 11 10 10 10 9 9 8 8 7 7 7 7 7 6 6 5 5 5 5 5 5
9 9 13 14 11 8 8 8 7 7 9 11 13 14 13 14 15 16 16 14 13 13 13 14 14 16 18 18 17 15 12 11 10 9 9 10 10 9 7 6 5 6 6 5 5 5 5 5 7 8 9 10 11 11 10 10 10 10 9 10 10 11 10 10 9 9 9 9 8 8 8 7 7 7 6 7 6 6 6 5 5 4 4 5 5
8 9 11 13 11 9 7 7 7 8 9 10 12 13 13 13 14 15 16 15 13 12 13 14 14 14 15 15 14 13 13 12 10 9 9 10 9 8 8 7 6 5 4 4 5 5 4 5 7 9 10 11 10 10 10 9 9 8 8 8 8 8 7 8 8 8 8 8 7 7 7 6 6 6 6 6 6 5 4 4 4 4 4 4 3
8 8 9 10 11 10 8 7 7 8 8 10 12 12 12 12 12 13 14 14 13 12 12 13 13 13 13 13 13 12 12 12 11 9 8 9 9 8 8 7 6 5 4 4 5 5 5 7 9 9 10 10 9 9 9 9 8 8 7 7 7 7 7 7 7 7 7 6 6 6 5 5 5 6 5 5 4 4 4 4 4 4 4 3 2
8 8 8 9 9 9 9 8 8 8 9 10 11 11 10 10 11 11 12 13 13 11 11 12 13 11 11 12 13 12 11 11 11 10 9 8 8 8 7 6 6 5 4 4 6 6 6 8 9 9 9 9 8 8 8 8 8 7 7 6 7 7 7 7 6 6 6 6 5 5 5 4 4 5 4 3 4 4 4 4 4 4 4 3 2
7 7 7 8 8 8 9 9 9 9 10 10 11 10 9 10 10 11 12 13 12 10 9 11 12 10 9 10 11 12 11 11 11 10 9 8 7 7 7 5 4 3 2 5 7 6 6 7 8 8 8 8 7 7 7 7 6 7 6 6 6 6 6 6 6 5 5 5 4 4 3 3 3 3 3 3 4 4 4 4 4 4 4 3 3
8 7 7 7 8 8 8 9 10 10 10 10 9 9 8 9 10 11 11 11 12 10 9 9 10 10 9 9 10 10 10 11 10 10 9 8 7 7 7 6 4 4 5 7 7 6 5 7 7 6 6 7 6 6 6 5 5 5 5 5 5 5 5 5 5 5 5 5 4 3 3 2 3 3 3 3 3 3 3 3 3 4 4 4 3
8 8 8 7 8 8 8 9 10 10 9 9 8 8 8 9 9 10 10 10 11 10 9 8 8 9 9 9 9 9 9 9 10 9 9 9 8 7 6 7 7 9 9 7 6 6 6 6 6 6 6 6 5 5 5 4 4 4 4 5 4 5 5 5 5 4 3 1 2 3 3 2 2 1 2 1 1 1 2 2 2 3 3 3 4
7 8 8 7 8 8 8 8 9 10 9 9 9 9 10 9 9 9 9 9 10 10 9 8 8 8 8 8 7 7 7 8 8 8 8 8 7 6 5 4 5 6 6 5 5 5 5 5 5 5 5 5 5 4 4 3 3 3 4 4 4 4 5 5 4 3 1 1 1 1 2 1 1 1 1 1 1 0 1 1 1 2 3 3 4
7 7 7 7 7 7 7 8 9 10 9 8 9 9 10 9 9 9 9 8 8 9 9 9 8 6 6 6 5 5 5 6 7 7 6 6 6 5 4 3 3 2 2 2 2 2 3 3 3 3 4 4 4 3 3 2 2 2 3 4 5 5 5 5 4 3 2 0 1 1 0 0 0 1 1 2 2 1 1 1 1 2 2 3 4
8 7 7 7 7 7 7 8 9 9 9 8 8 9 9 9 9 9 9 9 8 8 10 9 7 5 5 5 4 4 4 5 5 5 5 5 4 3 3 3 3 2 2 2 2 2 3 2 2 2 2 2 2 2 2 1 1 2 3 5 6 6 7 6 4 3 3 2 0 1 0 1 2 2 2 3 3 3 2 2 1 2 2 3 4
7 6 6 6 6 7 7 8 9 9 9 9 9 9 9 9 9 9 9 9 9 9 9 9 7 6 6 5 4 3 3 4 5 5 5 6 5 3 1 2 2 2 2 2 2 2 2 1 1 1 2 2 2 2 2 2 2 2 3 5 7 8 7 7 5 4 3 2 1 1 1 1 2 3 3 3 3 2 2 2 1 1 2 3 3
6 6 6 6 6 7 7 8 9 9 9 9 10 10 9 9 9 9 9 9 9 8 9 8 8 7 7 6 5 4 3 3 5 6 6 6 6 3 1 2 2 2 1 1 1 2 2 2 3 3 3 3 4 4 4 3 3 4 6 7 8 8 8 7 6 5 4 2 1 1 1 2 3 4 4 2 1 1 1 2 2 1 2 3 3
5 6 6 6 6 7 8 8 10 10 10 10 10 10 10 10 10 9 9 9 9 8 8 8 8 8 8 7 5 4 3 4 5 6 6 6 6 4 2 1 1 2 2 1 1 2 2 2 3 3 3 3 4 3 3 4 6 8 8 9 9 9 8 7 6 5 3 3 2 1 2 2 3 4 3 2 1 1 3 3 2 2 1 2 3
Wind_Direction
357 351 347 343 339 337 334 333 332 328 321 312 301 293 288 282 274 264 256 249 241 236 232 229 225 219 212 209 208 205 202 201 199 199 203 205 209 216 215 215 216 216 217 219 218 218 221 224 221 216 216 216 216 216 214 211 215 223 227 232 231 219 208 213 191 172 183 188 187 187 179 177 181 183 180 179 188 191 185 188 203 205 197 199 207
358 353 348 343 339 336 334 335 336 334 329 320 310 301 293 285 278 268 257 249 242 233 228 228 225 218 211 208 207 206 204 201 198 200 203 202 204 208 210 211 213 212 214 216 215 216 218 220 221 217 211 213 216 212 209 207 206 217 226 227 227 216 204 216 207 166 164 186 189 184 179 181 186 186 186 185 185 189 190 191 197 198 195 198 205
359 355 351 346 342 339 336 337 340 341 337 328 319 309 299 290 282 274 265 256 246 234 228 230 226 216 212 211 208 205 203 200 200 202 201 199 201 204 207 209 209 210 212 212 211 212 215 218 220 216 210 211 216 212 208 208 204 207 216 219 220 215 207 216 217 186 173 181 189 186 180 186 193 190 190 190 185 189 194 195 196 197 200 201 201
360 357 353 349 346 343 341 340 342 344 341 334 327 317 304 294 286 282 277 268 253 238 232 234 227 215 211 211 208 206 203 200 201 202 200 200 201 204 207 209 209 210 210 209 210 210 213 218 219 216 212 211 215 215 212 212 211 211 214 213 210 210 209 207 213 217 197 178 187 192 184 186 196 194 190 190 189 192 196 197 199 199 202 205 204
0 359 355 353 351 348 345 344 343 344 341 337 333 324 310 298 290 287 281 272 261 249 239 234 226 216 212 208 205 206 205 200 199 198 197 198 200 203 207 208 210 211 210 209 209 211 213 217 218 216 214 212 214 214 213 214 216 217 218 216 207 203 204 200 202 219 218 186 183 193 186 184 194 196 192 190 190 195 199 201 202 202 203 207 207
1 1 359 357 355 352 350 346 344 344 342 339 336 331 320 306 297 294 287 271 261 258 250 239 229 219 212 206 204 207 204 199 196 195 193 194 198 202 203 205 207 210 211 210 209 211 215 216 219 217 213 214 214 213 214 214 217 221 221 221 217 197 186 189 200 213 217 200 185 187 186 184 190 193 195 196 194 196 200 201 204 205 203 206 207
3 4 3 2 359 356 353 349 346 345 344 342 339 334 330 319 306 303 301 281 262 263 261 248 236 227 217 209 205 205 202 196 194 193 192 194 198 199 199 200 204 207 209 210 208 209 213 215 217 217 215 216 216 214 214 213 216 221 221 224 226 198 179 184 205 212 213 209 192 187 190 191 190 192 195 199 202 201 199 200 204 206 205 208 211
5 6 5 5 3 360 357 353 350 348 347 348 348 345 342 334 319 314 319 310 288 284 282 264 247 240 233 223 212 206 204 200 195 193 190 192 196 198 199 198 201 207 209 209 208 206 208 212 216 217 217 218 217 216 216 216 218 223 223 223 225 204 180 178 199 214 214 214 205 194 193 192 194 197 195 195 203 207 204 203 206 206 206 210 213
8 8 8 7 5 2 0 357 355 352 351 353 356 359 360 354 337 330 337 339 336 328 319 306 282 262 251 244 230 217 210 202 194 191 188 191 197 200 202 201 200 206 209 209 209 207 205 208 212 217 218 218 218 216 216 217 216 221 226 224 229 226 189 177 190 206 213 215 210 202 199 197 196 198 195 196 204 209 207 209 213 212 208 209 212
12 11 10 9 7 5 4 2 0 359 357 356 356 360 7 10 4 358 1 5 2 351 335 323 308 289 264 246 236 223 213 203 196 193 187 189 199 201 200 201 201 204 206 208 210 208 207 207 208 212 216 218 219 218 218 218 214 218 224 217 224 232 191 166 177 190 204 228 225 210 206 209 206 200 199 204 209 213 212 211 215 216 211 208 207
15 14 13 11 10 8 7 6 6 5 3 1 360 359 3 10 14 14 16 24 27 12 352 336 321 308 295 276 257 241 222 205 201 201 196 194 200 202 201 202 202 203 204 207 209 208 208 207 205 209 214 217 220 219 219 219 218 220 222 216 219 224 198 172 175 189 207 223 226 213 207 215 218 209 206 209 210 213 215 211 212 217 214 211 210
18 17 15 12 11 11 10 10 10 10 9 7 6 3 1 5 11 15 18 20 24 20 4 352 329 317 321 312 291 281 268 223 209 212 211 207 204 204 207 205 203 207 207 208 210 208 206 205 203 205 209 211 214 217 216 218 219 220 220 219 222 222 209 192 182 191 208 216 217 216 211 213 218 215 214 215 211 212 216 213 215 216 210 215 221
19 19 17 14 13 12 12 13 13 13 13 11 10 9 7 6 7 9 13 15 17 19 15 8 347 323 329 335 332 331 321 292 261 233 222 221 214 210 217 216 209 212 212 209 210 206 202 203 202 201 205 206 204 206 209 212 215 216 218 223 228 231 224 205 193 197 208 215 218 217 213 216 224 225 221 214 207 207 212 211 212 214 213 221 224
21 20 18 17 16 14 14 15 15 15 16 14 13 13 12 10 8 7 9 11 13 15 15 12 5 349 338 344 2 359 316 280 268 245 228 229 225 219 225 230 221 219 218 212 209 203 199 201 200 198 202 204 201 198 199 203 206 209 210 211 218 228 228 219 215 211 209 214 217 211 208 206 206 215 211 195 194 205 211 210 210 209 205 199 180
23 22 20 19 18 16 16 16 16 16 16 16 16 15 14 13 11 10 11 12 13 13 12 10 5 0 356 353 9 9 324 279 266 252 237 233 232 228 231 238 233 227 224 216 209 204 201 201 201 198 198 201 200 195 193 196 193 187 184 179 188 210 221 223 227 223 216 218 215 211 219 212 198 219 221 179 186 202 199 194 188 176 166 159 154
24 23 22 20 19 18 18 17 16 16 15 16 17 16 16 15 14 14 13 14 15 14 13 12 7 4 2 358 357 352 328 299 276 263 248 239 238 235 236 242 240 231 228 220 209 204 202 202 205 202 195 198 203 195 187 187 182 172 171 179 193 208 217 220 223 222 220 221 217 217 224 226 228 237 241 218 198 192 179 169 159 161 167 169 169
25 24 23 21 19 19 18 18 17 16 16 17 16 15 16 16 16 17 16 16 16 15 14 15 13 12 10 6 4 354 337 324 308 284 260 246 241 237 241 247 243 232 228 222 209 201 195 195 202 202 193 199 207 199 186 179 171 163 164 168 169 171 178 190 201 205 209 213 213 212 216 220 220 219 215 201 187 183 187 184 174 182 192 189 179
26 25 25 23 21 20 18 17 16 16 16 17 16 15 15 16 17 19 20 20 20 18 17 17 17 17 14 11 11 8 354 341 328 308 284 252 228 225 246 252 236 216 209 206 202 200 195 191 191 189 193 206 210 201 191 182 169 160 157 151 141 136 138 139 139 143 154 169 177 177 175 176 175 167 160 164 167 168 169 163 157 167 174 158 155
25 25 25 24 22 20 19 17 16 15 16 17 17 17 16 15 16 19 22 24 23 23 23 21 20 20 17 15 16 15 11 1 346 329 310 275 230 222 257 261 230 200 185 179 174 180 194 194 188 182 194 209 204 191 184 180 170 163 157 147 136 133 134 131 127 125 128 133 138 142 143 140 139 140 143 152 163 161 148 143 139 133 125 109 117
24 24 24 24 23 22 22 21 20 18 18 18 17 18 17 15 15 17 20 23 24 24 25 24 22 22 21 21 22 19 17 13 4 352 333 305 274 259 273 270 220 184 174 172 158 145 173 193 189 184 192 194 182 175 174 171 168 164 157 148 142 140 138 134 130 127 125 127 129 130 130 128 129 133 139 150 160 156 147 149 139 123 122 133 155
25 24 24 23 23 23 24 24 25 23 22 21 20 20 19 17 15 15 16 20 22 22 24 24 23 22 21 22 23 21 20 20 18 12 2 345 326 301 267 238 183 136 119 107 102 106 132 172 180 183 183 175 170 169 168 165 163 161 159 156 151 148 142 136 133 129 125 126 124 118 115 114 116 124 131 138 141 138 138 145 138 131 132 132 140
24 22 22 22 23 24 24 25 27 26 25 25 24 22 21 20 18 17 15 15 17 19 21 22 23 22 21 21 22 21 20 23 26 26 23 18 15 1 275 235 198 149 124 98 80 83 107 135 151 165 170 168 168 168 165 163 160 156 159 161 153 144 137 132 132 130 125 124 120 113 109 106 106 113 119 119 121 123 129 138 144 148 151 145 134
21 21 21 21 22 24 25 26 29 30 28 28 27 26 24 23 22 22 20 18 17 17 17 18 20 21 21 20 21 22 21 25 31 36 38 39 44 52 64 166 169 149 126 107 95 90 99 113 130 149 158 158 159 159 159 159 156 150 151 150 142 133 129 128 130 129 123 120 115 109 106 104 102 102 100 99 106 115 122 128 128 126 137 146 143
21 21 21 21 22 23 26 28 30 31 31 31 31 30 27 26 25 23 22 22 22 21 18 16 17 18 19 19 20 21 22 25 34 42 49 54 60 67 77 98 120 123 111 104 103 100 100 107 117 133 142 141 139 138 137 137 136 137 140 139 131 125 123 121 118 115 108 101 98 93 87 86 88 86 86 92 102 108 111 113 112 110 111 119 132
22 21 21 23 23 23 26 29 31 33 31 31 32 31 30 29 27 25 23 22 22 22 20 20 20 19 18 17 16 18 21 23 30 41 51 60 67 75 81 87 94 100 99 97 98 99 102 107 110 114 120 124 125 123 121 121 124 127 132 132 127 120 118 117 116 112 102 95 94 89 81 81 86 89 91 92 91 91 97 100 101 105 108 106 106
22 22 23 24 24 24 25 25 29 33 32 31 32 31 30 31 29 26 24 22 22 22 20 20 20 20 20 18 16 16 20 23 28 35 45 58 68 75 79 79 82 89 94 95 97 98 100 103 104 104 107 111 114 113 113 115 119 119 121 126 126 122 119 117 117 113 104 99 98 95 91 91 95 94 88 82 79 79 84 95 100 102 107 109 105
22 23 24 24 23 24 24 20 22 30 33 33 33 30 29 31 31 28 23 19 19 19 19 19 19 18 19 20 20 21 22 25 32 37 41 52 64 72 76 77 77 81 85 88 91 91 90 92 95 96 97 100 104 106 107 109 108 104 101 102 107 113 116 116 114 110 104 102 101 100 101 101 99 95 84 76 78 78 77 92 108 110 116 121 118
24 25 25 24 22 22 23 21 21 27 31 35 37 34 30 31 33 31 26 22 20 19 18 17 16 15 18 19 21 27 28 30 37 43 46 53 62 68 72 74 74 75 78 82 85 86 86 85 85 85 85 86 88 90 93 96 96 95 93 91 91 96 104 109 109 106 105 105 101 96 97 100 100 98 90 80 77 74 74 89 104 114 128 135 131
26 28 27 25 23 22 24 24 24 24 25 31 40 43 38 37 39 38 31 28 28 26 25 21 13 7 13 21 25 31 32 32 37 43 49 57 63 64 65 65 67 70 76 83 87 87 86 82 77 74 74 74 74 74 76 81 86 89 91 93 95 96 99 103 106 106 108 109 104 95 92 93 93 92 88 82 77 74 77 87 96 109 124 128 123
27 29 29 27 23 22 24 25 25 23 22 23 32 51 54 46 42 40 35 33 33 33 33 32 26 17 13 14 19 27 35 38 39 41 44 51 57 57 56 58 61 64 69 79 86 84 81 78 74 73 75 75 75 76 77 80 85 88 91 97 102 104 105 106 108 110 112 112 111 109 106 99 90 83 82 83 81 78 78 80 84 93 100 100 99
26 27 28 28 25 23 24 25 24 23 22 20 20 30 51 54 45 39 33 31 34 37 37 35 33 32 32 25 11 6 15 30 39 43 43 43 44 45 46 50 56 61 65 75 81 81 79 79 78 79 83 84 85 88 92 94 96 97 99 102 105 108 110 110 111 113 115 113 113 116 116 112 104 96 91 88 83 77 73 76 81 89 92 91 93
29 26 25 26 25 24 24 25 24 23 23 20 17 16 18 24 33 38 32 26 29 36 38 35 33 33 35 36 31 21 10 2 357 0 12 22 27 32 36 42 50 54 58 68 76 78 80 82 84 86 89 91 93 97 101 103 105 107 108 108 110 114 116 117 120 122 120 116 114 112 111 110 108 105 100 95 92 86 80 81 85 88 92 93 94
32 28 21 18 21 24 23 22 23 23 21 20 18 15 12 10 8 12 19 20 22 31 36 36 34 29 28 30 31 28 24 18 10 356 338 325 331 348 7 26 43 55 58 64 73 79 80 79 82 86 90 94 100 104 105 106 108 110 110 110 112 116 119 123 128 128 124 121 118 114 109 104 101 101 100 98 97 95 90 89 92 94 97 98 98
32 32 23 14 14 19 19 18 20 21 18 18 17 14 12 10 5 2 4 6 6 13 23 28 30 27 22 21 22 22 21 21 19 14 5 346 326 322 333 350 22 61 74 70 72 77 77 76 78 83 90 98 104 106 107 108 108 109 108 106 106 110 116 121 124 122 119 116 114 111 108 105 103 105 106 105 103 100 93 89 89 91 93 93 88
25 28 23 15 10 12 12 12 15 16 14 15 16 14 11 9 5 3 4 3 -0 2 6 13 22 24 19 15 15 12 11 14 17 17 14 7 0 5 7 358 9 72 85 74 68 70 74 79 82 85 91 98 102 103 105 108 108 108 109 108 110 114 117 117 116 113 111 111 111 109 105 101 99 101 101 100 98 96 92 88 85 84 85 84 79
13 12 10 5 2 1 1 3 11 16 13 11 13 14 12 10 8 6 6 6 2 1 2 6 11 13 11 10 8 2 358 2 10 15 15 13 10 12 11 6 27 82 88 78 74 74 76 80 83 91 100 103 106 109 111 113 112 111 111 111 113 114 114 113 111 110 110 110 109 108 104 99 98 101 101 97 93 91 88 84 79 76 73 72 73
3 1 358 352 344 342 348 356 8 16 8 3 8 13 13 13 11 9 9 10 6 2 4 6 4 3 3 3 360 353 347 349 359 9 14 16 17 17 20 28 55 80 84 83 82 79 78 81 88 98 106 107 110 114 115 114 112 111 110 111 113 115 118 118 115 113 113 110 105 101 99 98 99 102 103 99 95 92 91 89 89 85 71 54 56
358 1 3 357 343 332 337 346 353 357 355 357 6 12 13 13 13 11 12 13 9 4 5 7 7 6 5 360 355 352 351 356 2 2 5 15 21 27 36 51 71 85 84 81 79 75 73 83 97 108 113 115 116 118 118 116 115 113 112 113 116 118 120 119 114 110 111 109 106 103 102 99 95 95 98 98 94 90 86 81 86 92 79 57 56
1 4 7 4 353 337 334 342 345 347 351 358 6 10 9 8 9 10 9 9 8 6 6 6 7 10 9 4 1 3 7 12 11 5 4 15 24 32 41 51 68 85 86 79 72 64 63 85 108 116 119 120 122 122 121 120 120 120 118 119 120 119 117 115 112 109 108 107 104 103 101 99 95 93 93 94 92 90 86 75 67 67 66 61 60
1 2 4 3 359 350 343 344 347 350 352 355 360 4 4 3 3 7 10 10 7 6 6 6 9 15 15 12 14 19 19 17 15 11 12 17 23 34 47 55 61 73 80 77 67 58 64 101 118 123 124 124 124 126 126 125 125 123 122 123 122 119 117 116 112 108 106 103 103 103 103 100 97 93 90 88 89 87 86 82 72 63 61 61 66
353 356 360 1 1 360 357 357 0 359 355 350 351 356 2 4 2 5 9 10 8 6 6 7 11 19 21 19 24 30 27 22 22 21 20 21 26 34 43 49 53 60 70 75 68 65 90 117 122 124 126 125 125 127 127 129 129 127 124 122 119 116 116 115 111 108 107 105 101 100 97 90 90 91 87 83 84 81 73 68 67 67 67 66 76
343 346 350 353 355 357 358 359 356 350 345 347 350 352 357 2 3 2 5 7 7 7 6 7 12 17 16 18 27 34 32 29 31 32 29 28 29 29 26 26 28 33 53 88 89 87 107 123 124 123 125 125 126 128 130 132 134 133 131 127 124 124 123 119 115 114 112 104 95 92 90 90 95 96 85 73 74 73 65 57 53 61 74 71 63
339 336 337 340 344 346 346 345 344 342 345 351 354 351 349 354 357 356 0 6 9 6 3 5 10 13 10 13 23 30 29 29 34 36 34 33 31 23 14 4 352 352 68 115 111 107 118 126 124 123 125 126 126 129 132 134 136 137 136 133 131 132 131 128 128 128 120 110 102 97 90 89 96 92 77 69 70 69 64 54 41 43 58 66 56
340 336 332 330 333 337 339 340 342 343 342 344 346 343 342 349 354 354 357 3 6 5 2 2 5 9 9 11 19 24 25 28 33 35 36 38 39 34 27 28 45 86 112 114 107 107 126 136 132 128 127 125 125 128 130 132 135 140 141 139 138 139 140 138 137 136 126 117 116 115 101 89 99 99 84 75 75 70 68 62 44 37 45 57 66
341 339 335 331 330 332 335 338 341 341 337 336 340 342 344 350 354 354 355 356 356 358 2 3 4 8 10 14 20 24 24 29 36 40 40 43 49 53 50 54 76 96 103 97 87 91 110 128 132 132 130 128 127 127 125 124 129 138 145 147 146 145 146 143 139 140 138 114 106 126 123 99 80 76 62 59 83 79 65 59 51 49 51 62 78
337 336 333 333 331 328 330 333 336 338 339 337 339 343 348 354 356 355 353 349 346 349 356 0 4 10 13 17 25 29 26 28 35 38 41 47 54 63 70 78 88 93 92 87 84 87 95 106 119 131 137 135 132 132 127 120 122 138 153 159 152 144 147 149 141 140 158 326 8 104 138 133 105 84 22 340 327 28 73 67 63 61 63 73 84
331 331 330 331 328 325 327 332 333 334 337 338 339 342 346 350 352 351 350 345 341 342 348 354 0 7 11 15 24 30 30 33 34 32 33 42 52 62 81 102 107 101 97 98 100 104 112 115 117 127 137 140 144 146 139 125 122 136 154 160 158 157 160 157 139 128 147 179 3 12 344 290 136 113 13 322 315 306 248 207 155 112 88 73 67
334 331 328 330 328 324 327 331 330 329 332 335 337 339 340 342 345 348 348 347 345 344 348 353 358 359 1 7 17 25 26 30 30 25 22 26 35 54 90 107 106 108 122 130 126 124 133 136 128 123 136 155 171 178 178 169 160 149 154 170 182 183 173 162 152 149 160 162 59 349 300 312 329 339 334 318 310 299 273 241 177 122 94 70 59
345 339 334 334 332 328 330 332 329 329 334 335 334 334 335 337 340 344 346 346 346 346 349 354 356 354 351 349 351 1 10 6 1 357 0 6 13 24 113 153 140 133 140 153 160 165 174 190 201 193 194 210 228 236 240 237 210 177 178 192 197 190 176 167 168 172 166 156 187 260 237 300 321 319 310 306 304 294 255 221 176 105 87 73 59
357 350 344 341 337 333 334 334 330 329 332 332 330 330 331 331 333 338 341 341 341 345 349 352 353 352 349 340 326 316 320 336 343 343 343 349 355 356 296 194 183 183 191 209 206 211 222 240 247 240 236 246 259 259 253 237 214 203 205 204 195 185 177 175 178 178 171 170 205 257 286 333 332 320 311 306 306 269 182 173 180 175 131 102 77
359 354 348 344 337 334 335 335 331 329 329 327 324 324 325 326 329 332 333 334 335 340 345 347 347 349 352 349 335 309 285 304 330 341 346 350 352 349 328 252 225 230 243 246 216 214 220 234 243 244 247 257 263 255 232 219 217 216 212 203 193 188 188 188 188 189 183 175 188 244 289 321 332 329 326 322 275 188 162 155 177 216 180 115 101
Height
820 819 817 815 814 812 810 808 806 804 803 801 800 799 798 797 796 795 794 794 793 792 792 791 790 790 791 793 794 795 796 796 797 798 799 800 802 804 806 807 808 809 809 810 810 810 811 812 813 815 816 817 816 817 819 822 824 824 825 825 825 824 825 827 830 832 832 833 835 836 838 841 843 845 848 850 851 852 855 857 857 858 860 861 862
822 820 818 817 815 813 811 808 806 804 802 800 799 798 797 795 794 793 791 791 790 789 789 789 788 788 789 791 792 792 793 794 796 797 797 798 800 802 804 805 805 806 807 807 808 808 809 810 811 812 814 815 815 816 818 820 822 822 823 823 822 821 823 825 826 828 830 832 833 834 837 839 841 843 846 848 850 851 853 855 856 857 859 860 861
823 821 819 818 816 814 812 809 806 803 801 800 799 797 796 793 792 791 789 789 788 787 787 787 786 786 787 788 790 791 791 793 794 795 795 796 797 800 801 802 803 804 804 805 805 806 807 808 809 810 812 813 813 814 815 817 818 819 819 820 819 819 821 823 823 824 827 829 831 833 835 838 839 841 844 846 848 850 852 853 855 856 857 859 860
824 822 820 819 817 814 812 809 806 804 801 799 798 797 795 792 790 789 788 787 786 786 786 785 785 785 785 785 786 788 789 790 792 793 793 794 796 798 799 800 801 802 802 803 803 804 806 807 808 809 810 811 811 812 813 814 815 816 816 816 817 819 820 821 823 824 824 827 830 831 833 836 838 840 842 844 847 849 850 852 853 855 856 857 858
825 823 821 819 817 815 812 810 807 805 802 799 797 796 794 791 789 787 786 786 785 784 784 785 784 784 783 782 783 786 787 788 789 790 791 792 794 796 797 798 799 800 800 801 802 803 804 805 806 807 808 809 809 810 810 811 812 813 813 812 814 817 819 821 823 825 824 825 828 830 831 834 837 839 840 843 845 847 848 850 851 853 854 855 857
827 825 823 820 818 816 813 811 808 806 803 800 797 795 793 791 788 786 785 785 784 782 783 783 784 783 781 780 781 784 785 786 787 788 789 790 792 794 795 796 797 798 799 799 800 801 802 804 805 806 807 807 808 808 809 809 810 810 810 810 811 814 817 820 823 824 824 825 827 829 831 832 835 837 839 841 843 844 846 848 849 851 852 853 855
828 826 824 822 820 817 814 812 810 807 804 801 798 796 793 790 787 785 784 783 781 781 781 781 782 782 779 778 779 780 781 783 784 786 787 789 791 792 793 794 795 796 797 798 799 799 801 802 803 804 805 806 806 807 807 808 809 809 809 810 812 814 816 819 822 824 824 825 826 828 830 831 833 835 837 839 841 842 843 845 847 848 850 851 852
830 828 826 823 821 818 816 814 811 809 806 803 799 796 793 790 788 785 783 781 780 779 779 780 781 780 776 775 776 777 779 781 783 784 786 787 789 791 792 793 794 795 796 796 797 797 798 800 801 802 803 804 805 805 806 807 807 808 809 810 812 814 815 818 822 824 824 824 825 826 828 830 832 833 835 837 839 840 841 842 844 845 847 848 850
832 829 827 825 823 820 818 815 812 810 807 803 800 797 793 790 788 786 783 782 780 779 778 779 779 778 775 774 775 776 779 781 780 782 784 785 788 789 790 791 792 794 795 795 796 796 796 798 799 800 801 802 803 803 804 805 806 807 808 809 813 816 816 817 820 823 825 824 824 824 826 828 829 831 833 835 836 837 839 840 841 842 843 845 847
833 831 828 827 825 822 820 817 814 811 808 804 801 798 795 791 789 786 784 782 781 780 779 778 778 777 775 775 775 777 779 779 778 780 782 784 786 788 789 790 791 792 793 794 795 795 795 796 796 798 799 800 801 802 803 804 805 806 807 808 811 815 816 816 818 822 825 825 824 824 825 827 828 829 831 832 834 835 837 838 839 840 841 842 843
835 832 830 829 827 824 821 818 815 812 809 806 803 800 797 793 791 788 785 783 782 781 779 777 777 777 776 775 775 778 778 777 777 780 781 783 785 787 788 789 790 791 792 793 793 793 794 794 794 795 796 798 799 800 801 802 804 805 806 807 809 812 814 816 817 820 822 823 823 823 825 826 826 827 828 830 832 833 834 835 837 838 838 839 840
836 834 833 831 828 826 823 820 817 814 811 808 805 802 799 796 793 790 788 785 784 783 781 778 778 779 778 777 777 778 777 776 777 780 781 783 785 786 788 788 788 789 790 791 791 791 792 792 792 793 794 795 797 798 799 801 802 804 804 806 808 809 811 814 816 817 818 818 819 820 821 823 824 825 826 827 829 831 832 833 834 835 836 837 837
838 836 835 833 830 828 825 822 819 816 813 811 808 805 802 799 796 793 791 789 787 785 783 782 781 781 780 779 779 778 777 777 778 780 782 783 784 785 786 787 787 788 788 789 789 789 789 790 791 792 792 793 795 796 798 799 800 802 803 804 806 807 809 811 813 815 815 816 816 817 819 821 822 823 824 825 827 828 829 830 832 833 834 835 835
840 839 837 835 832 830 827 824 821 818 816 813 810 808 805 802 800 797 794 792 790 788 786 785 785 784 782 780 780 780 779 779 780 780 781 783 784 784 785 785 786 786 786 787 787 787 788 788 789 790 791 792 793 795 796 798 799 800 802 804 805 806 807 809 811 812 813 814 815 816 818 819 820 822 824 824 825 827 827 828 830 832 833 834 835
842 840 839 837 835 832 829 826 824 821 818 815 812 810 808 806 803 800 798 796 793 791 789 788 787 786 783 781 781 781 780 780 780 780 781 782 783 783 783 783 784 784 785 785 785 785 786 786 787 788 789 791 792 793 795 797 798 800 802 803 803 804 805 807 808 809 810 811 813 815 817 817 819 821 823 823 824 826 826 827 829 830 832 833 835
844 842 840 839 836 834 831 829 826 823 820 817 815 812 810 808 806 804 802 800 798 795 793 791 789 786 785 783 782 782 782 781 780 780 780 781 781 782 782 782 782 782 783 784 784 784 784 785 786 787 788 789 790 791 793 795 797 799 800 801 801 801 802 804 805 807 808 809 811 814 815 816 818 820 821 822 823 824 826 827 828 829 831 832 834
845 844 842 840 839 836 834 831 828 826 823 820 817 815 813 811 809 807 805 803 801 798 796 794 791 789 787 785 784 784 783 782 781 779 779 779 780 780 781 781 780 781 781 782 783 782 783 783 784 785 787 787 788 790 792 794 795 796 797 798 799 800 801 802 803 804 806 807 809 811 813 814 815 817 818 820 821 823 825 826 827 828 828 829 831
848 846 844 842 841 838 836 834 831 828 825 823 820 818 816 814 812 810 808 806 804 802 800 798 795 793 791 789 787 785 784 783 781 780 779 778 778 779 780 780 779 779 780 781 782 781 781 781 782 784 785 786 787 789 791 793 794 795 796 797 799 800 800 801 801 803 805 807 809 810 812 813 814 815 817 819 821 823 823 823 825 826 827 827 829
850 848 846 844 842 840 838 836 833 831 829 826 823 821 819 817 815 813 810 809 807 805 803 801 799 797 795 793 790 788 785 783 781 780 779 778 777 778 779 779 779 778 778 779 780 781 780 779 780 782 783 784 786 789 791 793 794 795 795 797 798 800 801 802 802 803 805 807 809 811 812 812 813 814 816 819 822 823 822 823 825 826 827 828 830
851 850 848 846 844 842 840 838 836 833 831 829 826 824 822 820 818 815 813 811 810 808 806 804 802 801 798 796 793 791 788 785 783 780 779 778 777 778 779 779 778 778 778 779 779 780 779 779 779 781 782 784 786 788 790 792 794 795 796 797 798 800 802 803 804 805 806 808 810 811 812 812 812 814 817 820 822 823 823 824 826 827 829 830 831
853 852 850 848 846 844 842 840 838 836 834 831 829 827 825 823 821 818 816 813 811 810 808 806 805 803 801 799 797 794 792 788 785 782 780 778 777 778 779 779 777 776 777 779 780 780 779 779 780 781 783 785 786 788 790 791 793 794 795 796 797 798 801 803 804 806 808 809 811 812 813 813 814 816 819 821 822 823 825 826 826 828 829 831 832
855 853 851 849 848 846 844 842 840 838 836 834 832 830 828 826 824 821 819 816 814 812 810 808 807 805 804 802 800 798 796 792 788 785 782 779 778 778 779 779 777 775 776 778 780 781 781 781 781 782 784 786 787 788 790 791 792 793 794 796 797 799 802 804 806 809 810 811 813 814 815 816 817 819 821 823 824 825 826 827 828 828 829 831 832
857 855 853 851 849 848 846 844 842 840 838 836 834 832 830 828 826 824 822 820 817 815 813 811 809 808 807 805 803 801 799 796 793 789 785 783 780 779 780 781 779 776 776 778 781 784 784 784 784 784 784 787 788 789 791 792 793 794 796 797 799 802 804 806 808 810 811 812 814 815 817 818 819 821 823 824 825 825 826 827 828 829 830 831 832
858 856 854 853 851 849 848 846 844 843 840 838 836 834 832 830 828 827 825 823 821 819 817 815 813 811 810 808 807 805 803 801 798 794 790 788 784 781 783 785 781 776 777 780 783 786 787 787 787 787 787 789 790 790 792 795 796 797 799 800 802 804 805 807 809 810 812 813 814 816 817 819 820 822 823 824 825 826 826 827 828 829 830 831 832
859 857 855 854 852 851 849 848 846 845 843 841 839 837 835 833 831 830 828 826 824 822 821 819 817 816 814 813 811 809 807 805 803 800 796 793 789 787 789 790 785 779 779 783 787 790 791 789 790 790 789 790 792 792 794 798 800 801 801 802 803 805 807 808 809 810 812 814 815 817 818 819 821 822 824 825 826 827 828 828 829 830 830 831 833
860 858 857 855 854 852 851 849 847 846 845 843 841 840 838 837 835 833 831 829 827 825 824 823 821 819 818 817 816 814 812 810 807 805 803 800 797 795 795 794 790 785 785 789 792 795 795 792 792 793 793 793 793 794 797 800 802 804 804 804 805 806 808 809 809 810 812 814 816 818 819 820 821 823 825 827 828 829 829 830 831 832 832 833 834
861 859 858 857 855 854 853 851 849 848 847 846 844 843 841 840 839 837 835 833 831 829 827 826 824 823 822 820 819 818 816 814 812 810 808 806 803 801 800 798 797 794 794 796 797 799 798 797 796 798 798 798 797 798 801 803 804 806 807 808 809 810 810 811 812 812 814 815 817 819 820 821 822 824 827 828 829 830 831 832 833 833 834 835 836
862 861 859 858 857 855 853 852 851 849 848 848 847 846 845 843 842 841 839 838 836 833 831 829 828 826 825 824 822 821 820 819 817 815 813 811 808 806 804 803 803 802 801 802 802 802 802 801 801 802 803 803 803 804 806 806 807 808 809 811 812 813 814 814 815 816 817 817 818 820 822 823 823 825 827 829 830 832 832 833 834 834 835 835 836
863 862 861 860 858 856 854 853 852 851 850 849 849 848 847 846 845 844 843 841 839 837 835 833 831 830 828 827 826 824 824 823 822 820 819 816 814 812 810 809 809 808 807 807 806 805 805 805 805 807 807 808 808 809 811 811 811 811 812 814 815 816 817 818 818 820 821 820 820 822 824 825 825 826 829 831 832 833 834 834 835 835 835 835 835
863 863 862 861 860 858 856 855 854 852 851 850 849 849 848 847 847 846 845 843 841 840 838 836 834 832 831 830 829 828 827 826 825 824 823 821 819 817 816 815 814 813 812 811 810 810 810 810 811 812 812 812 813 813 814 815 815 815 816 817 818 819 820 821 821 822 823 822 822 824 825 827 828 829 831 833 834 835 835 835 836 836 835 835 835
864 863 863 863 862 860 858 857 855 854 852 851 850 849 848 848 847 846 846 844 843 842 840 838 837 835 833 832 831 830 829 828 828 827 825 824 823 821 820 819 817 816 816 815 814 814 815 815 815 816 816 816 817 817 818 818 818 819 820 821 821 822 823 823 824 824 825 825 825 826 827 829 830 831 833 834 836 836 837 837 837 837 836 836 837
866 865 864 863 863 861 859 858 857 855 854 853 851 850 849 848 847 846 846 845 844 843 841 840 839 837 835 834 833 831 830 829 828 828 827 826 825 824 823 822 820 819 819 818 817 818 818 818 819 819 819 819 820 820 821 821 821 822 823 824 824 825 826 826 826 827 827 827 828 829 830 831 832 833 834 836 837 838 838 838 838 838 837 838 838
868 868 866 865 863 862 861 860 858 857 855 854 853 852 850 849 848 847 846 845 845 843 842 841 840 839 837 836 834 833 831 830 829 828 827 826 825 825 824 824 823 822 821 821 821 821 822 822 822 822 822 822 823 823 823 824 824 825 826 826 827 828 828 828 828 829 829 829 830 831 832 833 834 835 836 837 838 838 839 839 839 839 839 839 839
869 869 868 866 864 863 862 861 860 858 857 856 854 853 852 851 850 849 847 846 845 844 843 841 841 840 839 837 836 834 833 831 830 828 827 826 826 825 825 825 824 824 824 823 823 824 824 824 825 825 825 825 825 826 826 827 827 828 828 829 829 830 830 831 831 831 832 832 833 833 834 835 836 837 838 838 839 839 839 840 840 840 839 839 839
869 869 868 867 866 864 863 862 861 860 859 857 856 855 854 853 851 850 849 848 847 846 844 843 842 841 840 838 837 836 834 833 831 830 828 827 827 826 826 826 826 826 825 825 826 826 826 826 827 827 827 828 828 829 829 830 830 830 831 831 832 832 833 833 833 834 834 835 835 836 836 837 837 838 839 839 839 840 840 840 841 841 840 840 840
870 869 868 868 866 865 864 863 862 861 860 858 857 856 854 853 852 851 850 849 848 847 846 844 843 842 841 839 838 837 835 834 833 831 830 829 828 827 827 827 827 827 827 827 827 828 828 828 828 829 829 830 830 831 831 832 832 833 833 833 834 835 835 836 836 837 837 837 837 838 838 838 839 839 840 840 841 841 841 841 842 841 841 841 840
870 870 869 868 867 865 864 863 862 862 861 859 858 856 855 854 853 852 851 850 850 849 847 846 845 843 842 841 840 838 836 835 833 832 831 830 829 828 828 829 829 829 829 829 829 829 829 830 830 830 831 832 832 833 833 834 834 835 835 836 836 837 837 838 838 839 839 839 839 839 839 840 840 841 841 841 842 842 842 842 842 842 842 841 841
871 870 870 869 867 865 864 862 862 862 861 859 858 857 856 855 854 853 852 851 851 850 848 847 847 845 844 843 841 839 837 836 834 834 833 832 831 830 830 830 830 831 831 831 830 830 831 831 831 832 832 833 834 835 836 836 837 837 838 838 839 839 839 840 840 840 840 841 841 841 841 841 842 842 842 842 843 843 843 843 843 843 843 842 841
871 870 870 868 866 865 864 862 862 861 860 859 858 858 857 856 854 853 852 851 851 851 849 849 848 847 846 845 843 840 839 838 837 836 835 834 833 833 832 832 832 832 833 833 832 832 832 832 833 833 834 835 836 837 838 839 839 840 840 840 841 841 841 841 841 841 841 842 842 842 843 843 843 843 843 844 844 844 844 844 844 843 843 843 843
871 870 870 869 867 865 864 863 862 861 861 860 859 858 858 857 855 854 853 852 852 851 850 849 848 848 848 847 845 843 841 840 839 838 837 836 836 835 834 834 834 834 834 834 834 834 833 833 834 834 835 836 837 838 839 840 841 841 841 842 842 842 842 842 842 842 843 843 843 844 844 844 844 844 845 845 845 845 845 845 844 844 844 844 843
871 870 870 868 867 866 864 863 862 862 861 861 860 859 858 858 856 855 854 853 853 852 851 850 849 849 849 848 846 845 843 842 841 840 839 839 838 837 836 836 836 836 836 836 836 836 835 835 836 836 836 837 838 839 840 841 842 842 842 843 843 843 843 843 844 844 844 844 844 845 845 845 845 845 845 845 846 845 845 845 844 844 844 844 843
871 870 869 868 867 866 864 863 863 863 862 861 860 859 858 858 857 856 855 853 853 853 852 851 850 850 850 849 847 846 845 844 843 842 841 840 840 839 838 838 837 837 837 837 837 837 837 837 838 838 838 839 840 840 841 842 842 843 843 843 844 844 844 844 845 845 845 845 845 846 846 846 846 846 846 846 846 846 845 845 845 845 845 844 844
871 870 869 868 867 866 864 864 863 862 861 861 860 859 859 858 857 856 855 854 853 853 853 852 851 850 850 849 848 847 846 845 844 843 843 842 841 841 840 839 839 838 838 838 838 839 839 839 840 840 840 841 841 842 842 842 843 843 844 844 844 845 845 845 846 846 846 846 846 847 847 847 847 847 847 847 846 846 846 846 846 845 845 845 844
871 870 869 867 866 865 864 863 862 861 861 860 860 859 858 857 856 856 855 854 853 853 852 852 852 851 850 849 848 848 847 846 845 845 844 843 843 842 841 840 840 839 840 840 840 840 840 841 841 841 842 842 842 843 843 843 844 844 844 845 845 845 845 846 846 846 846 846 847 847 847 847 847 847 847 847 847 847 847 847 847 846 846 845 845
871 870 868 867 866 865 864 863 862 861 860 860 859 858 857 857 856 856 855 854 853 852 852 852 852 851 850 849 849 849 848 847 846 846 845 844 844 844 843 842 842 841 841 841 841 841 841 842 842 842 843 843 843 844 844 844 845 845 845 845 845 846 846 847 847 847 847 847 847 847 847 847 847 848 848 848 848 848 848 848 847 847 846 846 846
871 869 868 867 866 865 864 863 861 861 860 859 858 857 856 856 856 855 855 854 854 853 852 852 852 851 850 849 849 849 848 848 847 847 846 846 845 845 844 844 844 843 843 843 843 843 843 843 843 843 844 844 844 845 845 845 845 845 846 846 846 846 847 848 848 848 848 848 847 848 848 848 848 848 848 848 848 848 848 848 848 847 847 846 846
870 869 868 867 866 865 863 862 861 860 859 859 858 857 856 856 856 855 854 854 853 853 852 851 851 851 850 849 849 849 849 848 848 847 847 847 846 846 845 845 845 845 845 845 844 844 844 844 844 844 845 845 845 845 845 846 846 846 846 846 847 847 848 848 848 849 849 849 848 848 848 848 848 848 849 849 848 848 848 847 847 847 846 845 845
869 868 868 866 865 864 863 862 861 860 859 858 857 857 856 855 855 854 854 853 853 852 852 851 851 850 850 849 849 849 849 848 848 847 847 847 847 846 846 846 845 845 845 845 845 845 845 845 845 845 845 845 846 846 846 846 846 846 846 846 847 847 847 848 849 849 849 849 849 849 849 849 849 849 849 849 848 848 847 846 846 846 845 845 845
869 868 867 866 865 864 863 862 861 859 858 857 857 856 856 855 854 854 853 853 852 852 851 850 850 850 849 849 849 849 848 848 848 848 847 847 846 846 846 846 846 846 846 846 846 846 846 846 846 846 846 846 846 846 846 846 846 846 846 846 846 847 847 848 848 849 849 849 850 850 849 849 849 849 848 848 847 847 846 846 845 845 845 845 845
869 868 867 866 865 864 863 862 861 859 858 858 857 856 855 854 854 853 853 852 852 851 851 850 850 849 849 849 848 848 848 848 848 847 847 847 846 846 846 846 846 846 846 846 846 846 846 846 846 846 846 846 846 846 846 846 846 846 846 846 846 847 848 848 848 849 849 849 849 850 849 849 849 848 848 847 846 846 846 845 845 845 845 845 846
869 868 867 866 865 864 863 862 861 860 859 858 857 856 855 854 853 853 852 852 851 851 850 850 850 849 848 848 848 848 848 848 847 847 847 846 846 846 846 846 846 846 846 846 846 846 846 846 846 846 846 846 846 846 846 846 845 845 845 846 846 847 848 848 848 849 849 849 849 849 849 849 848 848 847 846 846 845 845 845 846 845 845 845 846